Lid_Strength_Index
8 9 9 10 10 10 10 10 11 11 12 11 12 13 13 13 13 14 14 14 14 14
9 10 10 10 9 9 10 10 11 12 12 12 12 14 13 14 14 14 14 14 14 15
9 10 10 10 10 10 10 11 12 12 12 13 13 14 14 14 14 14 15 14 15 15
9 9 10 9 10 11 11 11 12 13 13 13 14 14 14 14 14 15 14 15 15 15
9 9 9 10 10 10 11 12 12 12 13 13 14 15 15 15 15 15 15 15 15 15
9 9 10 10 10 11 12 12 13 13 13 14 15 15 15 15 15 15 15 15 15 16
10 10 11 11 12 13 12 13 13 13 13 14 14 14 15 14 15 15 14 14 15 16
11 12 12 12 13 13 13 14 14 14 15 15 15 14 15 15 15 15 15 16 16 15
13 13 13 12 13 13 14 15 15 16 16 16 14 12 12 13 15 15 16 17 16 16
13 14 14 14 14 15 15 16 16 17 15 15 14 12 12 13 15 17 17 16 16 15
14 14 14 15 15 16 16 16 16 16 16 16 14 13 13 13 17 16 17 17 16 16
13 14 15 15 16 16 16 17 17 17 16 16 15 14 14 14 16 17 17 16 16 15
14 15 16 16 17 17 17 17 16 16 17 15 18 13 14 15 16 17 17 16 15 12
15 17 17 17 18 18 17 17 18 18 18 18 17 17 14 14 16 16 16 15 15 15